[[{"header":{"parameterUnit":"m.s-1","parameterCategory":1,"la1":30.2991,"la2":30.254,"lo1":-89.0895,"lo2":-89.0444,"dy":0.0017,"dx":0.0017,"nx":28,"ny":28,"refTime":"2025-08-23T21:00:00:Z","depth":0,"parameterNumber":2,"parameterNumberName":"U-component_of_WINDS"},"data":[0,0,0,0,0,0,0,0,0,0,0,0,0,0,0,0,0,0,0,0,0,0,0,0,0,0,0,0,0,0,0,0,0,0,0,0,0,0,0,0,0,0,0,0,0,0,0,0,0,0,0,0,0,0,0,0,0,0,3.608,3.6082,0,3.6197,3.6198,3.6199,3.6122,3.6119,3.6115,3.6112,3.6232,3.6239,3.6245,0,0,0,0,0,0,0,0,0,0,0,0,0,3.579,3.5795,3.608,3.6082,3.6083,3.6197,3.6198,3.62,3.6123,3.6119,3.6115,3.611,3.623,3.6238,3.6246,0,0,0,0,0,0,0,0,0,0,0,0,0,3.5912,3.5797,3.608,3.6059,3.6058,3.6196,3.6198,3.62,3.6124,3.6119,3.6113,3.6108,3.6228,3.6237,3.6247,3.6413,0,0,3.6276,3.6281,0,0,0,0,0,0,0,0,3.5905,3.5923,3.606,3.606,3.606,3.614,3.614,3.6272,3.6125,3.6099,3.6112,3.6106,3.6206,3.6217,3.625,3.6418,3.6424,3.6277,3.6283,3.6287,3.629,0,0,0,0,0,0,0,3.5897,3.5917,3.6126,3.6062,3.6062,3.6042,3.6054,3.6164,3.6181,3.6101,3.6096,3.611,3.6205,3.6241,3.6253,3.6425,3.6277,3.6286,3.6292,3.6295,3.6731,3.6737,0,0,0,0,0,0,3.589,3.5911,3.6123,3.613,3.5968,3.6052,3.6065,3.6119,3.6179,3.6183,3.6115,3.6106,3.6227,3.6241,3.6257,3.6453,3.6287,3.6296,3.6302,3.6726,3.6733,3.6739,0,0,0,0,0,0,3.5884,3.591,3.6118,3.6019,3.6044,3.6063,3.6124,3.6124,3.6161,3.619,3.6192,3.6149,3.6224,3.6243,3.6374,3.6456,3.6301,3.631,3.6719,3.6728,3.6736,3.6848,0,0,0,0,0,0,3.5876,3.5908,3.5972,3.6021,3.6049,3.6234,3.613,3.6131,3.6178,3.6168,3.6223,3.6227,3.6221,3.6359,3.6383,3.6466,3.6317,3.6712,3.6723,3.6733,3.6837,3.6859,3.6878,0,0,0,0,0,3.5866,3.6,3.5976,3.6002,3.613,3.6239,3.6255,3.6245,3.6185,3.6249,3.6266,3.6225,3.6443,3.6374,3.64,3.6487,3.6706,3.672,3.6732,3.6828,3.6855,3.6878,0,0,0,0,0,0,3.5962,3.6006,3.598,3.6134,3.6183,3.6226,3.6306,3.6275,3.6343,3.6331,3.6316,3.6329,3.6465,3.6489,3.6411,3.6649,3.6565,3.6584,3.6629,3.6655,3.6675,3.6666,3.6325,0,0,0,0,0,3.6001,3.6086,3.612,3.6253,3.6278,3.6288,3.6335,3.6323,3.6374,3.6394,3.6422,3.6472,3.6551,3.6604,3.6679,3.684,3.6849,3.6912,3.6933,3.695,3.6966,3.705,3.7077,3.6781,3.6781,3.6781,0,0,3.6083,3.6117,3.6172,3.6273,3.6309,3.6396,3.6306,3.6404,3.6468,3.6409,3.6533,3.6555,3.661,3.6756,3.6821,3.678,3.705,3.6966,3.698,3.6987,3.7066,3.7094,3.7119,3.679,3.6788,3.6787,0,0,3.6276,3.6312,3.6424,3.6462,3.6518,3.6523,3.655,3.6597,3.6609,3.6733,3.669,3.6765,3.6904,3.6944,3.6982,3.7186,3.715,3.7211,3.7319,3.7401,3.7424,3.7445,3.7515,3.7541,3.7227,3.7227,3.7228,0,3.6371,3.6501,3.6486,3.6586,3.663,3.6579,3.6692,3.673,3.6808,3.6839,3.6791,3.6961,3.6995,3.7147,3.7196,3.723,3.7259,3.7205,3.7422,3.7442,3.7461,3.7529,3.7556,3.7234,3.7234,3.7233,3.7232,0,3.6613,3.6704,3.6788,3.6863,3.6916,3.7022,3.7023,3.7079,3.7061,3.707,3.7196,3.7234,3.7314,3.7349,3.7334,3.7499,3.7471,3.7424,3.7339,3.7497,3.756,3.7585,3.7244,3.7242,3.724,3.7238,0,0,3.6872,3.6935,3.6966,3.6998,3.7054,3.7124,3.7226,3.7303,3.735,3.7405,3.7489,3.7605,3.756,3.7603,3.7592,3.7663,3.7819,3.7606,3.7607,3.7643,3.8001,3.8036,3.8066,3.7795,3.78,3.7804,3.7995,0,3.7067,3.7245,3.7233,3.7401,3.7483,3.7434,3.7523,3.7566,3.7577,3.7648,3.7659,3.7741,3.7676,3.7702,3.777,3.7786,3.7891,3.7772,3.7872,3.7876,3.7859,3.8099,3.8138,3.8317,3.802,3.8024,3.8027,0,3.7319,3.738,3.7555,3.7596,3.763,3.771,3.7778,3.7847,3.7894,3.7896,3.7943,3.7919,3.802,3.7932,3.8071,3.799,3.803,3.8044,3.805,3.8059,3.7961,3.8113,3.8374,3.84,3.8066,3.8063,3.8061,0,3.7488,3.7614,3.7734,3.7764,3.7815,3.7872,3.7895,3.7937,3.7983,3.8043,3.8072,3.8143,3.8182,3.8237,3.8231,3.8168,3.8371,3.8284,3.8375,3.8375,3.842,3.8417,3.869,3.8448,3.8447,3.8447,3.8446,0,3.7706,3.7815,3.7811,3.7885,3.8004,3.7989,3.8107,3.8124,3.8161,3.8237,3.8199,3.8271,3.8259,3.833,3.8326,3.844,3.8459,3.8463,3.846,3.8466,3.8465,3.8492,3.8479,3.8454,3.8452,3.8451,3.845,0,3.7916,3.7918,3.8045,3.8082,3.8093,3.818,3.821,3.828,3.8286,3.8382,3.8403,3.8414,3.8495,3.8494,3.8588,3.8585,3.8724,3.8708,3.8708,3.8705,3.8795,3.8786,3.9094,3.9132,3.8866,3.8869,3.8871,0,3.8055,3.8137,3.8182,3.8229,3.8256,3.8333,3.8379,3.8366,3.8416,3.8473,3.8535,3.8613,3.8674,3.8806,3.8822,3.8892,3.8877,3.898,3.8887,3.8889,3.8877,3.8871,3.8878,3.8998,3.9001,3.9003,3.9005,0,3.8301,3.8297,3.8365,3.8432,3.8488,3.8541,3.8589,3.863,3.8622,3.8679,3.8761,3.8808,3.8902,3.8979,3.9046,3.9069,3.9036,3.9034,3.9058,3.9065,3.9061,3.9062,3.8756,3.9027,3.9025,3.9023,3.9022,3.9021,3.8479,3.8548,3.8589,3.8665,3.87,3.8745,3.8811,3.8824,3.8892,3.8967,3.8955,3.9046,3.9088,3.9174,3.9203,3.9274,3.9238,3.9274,3.9283,3.9292,3.9301,3.905,3.9286,3.9286,3.9285,3.9285,3.9284,0,3.8721,3.8744,3.8814,3.8882,3.8941,3.8903,3.8953,3.9005,3.9086,3.9127,3.9188,3.928,3.9354,3.9374,3.9444,3.9497,3.9483,3.9516,3.9511,3.9517,3.933,3.9301,3.9525,3.9525,3.9525,3.9525,3.9525,3.9525,3.8854,3.8969,3.8969,3.9099,3.9121,3.921,3.9242,3.9282,3.9315,3.942,3.948,3.9493,3.9525,3.9597,3.9662,3.9665,3.9693,3.9731,3.9729,3.9555,3.953,3.9507,3.948,3.9738,3.9738,3.9909,3.9911,3.9912]},{"header":{"parameterUnit":"m.s-1","parameterCategory":1,"la1":30.2991,"la2":30.254,"lo1":-89.0895,"lo2":-89.0444,"dy":0.0017,"dx":0.0017,"nx":28,"ny":28,"refTime":"2025-08-23T21:00:00:Z","depth":0,"parameterNumber":3,"parameterNumberName":"V-component_of_WINDS"},"data":[0,0,0,0,0,0,0,0,0,0,0,0,0,0,0,0,0,0,0,0,0,0,0,0,0,0,0,0,0,0,0,0,0,0,0,0,0,0,0,0,0,0,0,0,0,0,0,0,0,0,0,0,0,0,0,0,0,0,3.5028,3.5029,0,3.5051,3.5051,3.5051,3.4977,3.4975,3.4973,3.4971,3.4994,3.4996,3.4999,0,0,0,0,0,0,0,0,0,0,0,0,0,3.492,3.4922,3.5028,3.5029,3.5029,3.5051,3.5051,3.5051,3.4978,3.4975,3.4972,3.497,3.4993,3.4996,3.4999,0,0,0,0,0,0,0,0,0,0,0,0,0,3.4957,3.4923,3.5028,3.4995,3.4992,3.5051,3.5051,3.5052,3.4978,3.4975,3.4972,3.4968,3.4992,3.4996,3.5,3.5092,0,0,3.5012,3.5014,0,0,0,0,0,0,0,0,3.4955,3.4961,3.4999,3.4997,3.4994,3.5008,3.5021,3.5065,3.4979,3.4984,3.4971,3.4967,3.5001,3.5004,3.5016,3.5093,3.5094,3.5013,3.5015,3.5017,3.5018,0,0,0,0,0,0,0,3.4953,3.496,3.5037,3.5,3.4997,3.4978,3.498,3.5029,3.5011,3.4983,3.4978,3.4981,3.4999,3.5012,3.5016,3.5094,3.5012,3.5016,3.5019,3.502,3.5246,3.5249,0,0,0,0,0,0,3.4955,3.4958,3.5037,3.5038,3.4966,3.4983,3.4985,3.5007,3.501,3.5007,3.4984,3.4978,3.5007,3.5011,3.5016,3.5123,3.5017,3.5021,3.5023,3.5242,3.5246,3.525,0,0,0,0,0,0,3.4953,3.4962,3.5036,3.4997,3.5005,3.4988,3.5014,3.5009,3.5022,3.5011,3.5007,3.5001,3.5004,3.5011,3.5073,3.5123,3.5022,3.5026,3.5238,3.5243,3.5248,3.5337,0,0,0,0,0,0,3.495,3.4962,3.4998,3.4998,3.5007,3.5093,3.5017,3.5012,3.5029,3.5021,3.5026,3.5023,3.5002,3.5068,3.5077,3.5126,3.5029,3.5233,3.524,3.5247,3.533,3.5345,3.5358,0,0,0,0,0,3.4946,3.5023,3.5,3.501,3.5051,3.5096,3.5101,3.5075,3.5034,3.5068,3.5061,3.5023,3.5116,3.5075,3.5085,3.5136,3.523,3.5238,3.5246,3.5324,3.5342,3.5358,0,0,0,0,0,0,3.5029,3.5022,3.4997,3.5076,3.5087,3.5083,3.5127,3.5096,3.5119,3.5111,3.5077,3.5079,3.5147,3.5148,3.5102,3.5224,3.5166,3.5176,3.5221,3.5239,3.5252,3.5251,3.5033,0,0,0,0,0,3.5056,3.5094,3.5085,3.5156,3.5162,3.5144,3.5162,3.5141,3.5152,3.5156,3.5153,3.5165,3.5196,3.5217,3.5246,3.533,3.5329,3.537,3.5384,3.5395,3.5405,3.5447,3.5465,3.5276,3.5276,3.5276,0,0,3.5113,3.5114,3.514,3.5172,3.5178,3.5217,3.5148,3.5193,3.5221,3.5163,3.5221,3.522,3.523,3.5303,3.5335,3.5305,3.5456,3.5406,3.5415,3.5418,3.5457,3.5475,3.5491,3.5282,3.5281,3.528,0,0,3.5237,3.5242,3.5299,3.5307,3.5316,3.5303,3.5317,3.5318,3.5314,3.5372,3.5329,3.5362,3.5417,3.5425,3.5437,3.5561,3.5526,3.5571,3.5644,3.5686,3.5701,3.5714,3.5756,3.5772,3.558,3.5581,3.5581,0,3.5306,3.5363,3.5333,3.538,3.5394,3.5343,3.54,3.5409,3.5428,3.5439,3.5406,3.5472,3.5476,3.5549,3.5579,3.5591,3.5604,3.557,3.5701,3.5714,3.5725,3.5766,3.5782,3.5586,3.5585,3.5585,3.5584,0,3.5447,3.5487,3.5532,3.555,3.557,3.5622,3.56,3.5623,3.56,3.559,3.5648,3.565,3.5677,3.5693,3.5672,3.5763,3.5744,3.5707,3.5647,3.5749,3.5786,3.5802,3.5593,3.5591,3.559,3.5589,0,0,3.5624,3.5624,3.5641,3.5647,3.5654,3.5683,3.5732,3.5758,3.5778,3.5792,3.5832,3.5878,3.5843,3.5856,3.5835,3.5871,3.5967,3.5829,3.5828,3.5853,3.6066,3.6094,3.6112,3.5944,3.5947,3.595,3.6065,0,3.5744,3.5827,3.5801,3.5884,3.592,3.587,3.5912,3.592,3.5912,3.594,3.5931,3.5964,3.5916,3.5923,3.5957,3.5948,3.6009,3.594,3.598,3.5981,3.5978,3.6132,3.6161,3.627,3.6079,3.6082,3.6084,0,3.5895,3.5914,3.6001,3.5999,3.6013,3.6051,3.6071,3.6099,3.6107,3.6098,3.6112,3.6082,3.6128,3.6069,3.6132,3.6086,3.61,3.6098,3.6102,3.6104,3.6038,3.6137,3.6304,3.632,3.6106,3.6105,3.6103,0,3.6013,3.6061,3.6118,3.6126,3.6125,3.6153,3.6154,3.6158,3.6175,3.6192,3.6202,3.6226,3.6238,3.6257,3.6233,3.6193,3.6299,3.6239,3.6292,3.6293,3.6317,3.6315,3.6488,3.6328,3.6328,3.6327,3.6327,0,3.6149,3.6204,3.6171,3.6207,3.6266,3.6235,3.6294,3.629,3.6293,3.6326,3.6286,3.6317,3.6285,3.6314,3.6296,3.635,3.6356,3.635,3.6344,3.6353,3.6354,3.6361,3.6353,3.6332,3.6331,3.633,3.6329,0,3.6291,3.6272,3.6331,3.6325,3.6324,3.6368,3.6363,3.6395,3.6383,3.6425,3.6433,3.6415,3.6446,3.6424,3.6456,3.6444,3.6514,3.6499,3.6512,3.6507,3.6562,3.6556,3.6744,3.6767,3.6594,3.6596,3.6597,0,3.6379,3.642,3.6417,3.6436,3.644,3.6471,3.6487,3.6457,3.6476,3.6486,3.6516,3.6544,3.6564,3.6617,3.6606,3.6629,3.6613,3.6677,3.6617,3.6623,3.6613,3.661,3.6613,3.669,3.6692,3.6693,3.6695,0,3.6536,3.6523,3.6548,3.6569,3.6589,3.6604,3.6616,3.6633,3.6603,3.6626,3.6657,3.6673,3.6704,3.6732,3.6751,3.6751,3.6718,3.6714,3.6727,3.6736,3.6741,3.6738,3.6544,3.671,3.6708,3.6707,3.6706,3.6706,3.6652,3.6685,3.6688,3.6716,3.6722,3.6733,3.6762,3.6753,3.6778,3.6801,3.6782,3.6819,3.6823,3.6845,3.685,3.6878,3.6851,3.6871,3.6876,3.6881,3.6888,3.6738,3.6881,3.6881,3.6881,3.688,3.688,0,3.6806,3.6805,3.6831,3.6848,3.6869,3.6836,3.6846,3.6867,3.6899,3.6906,3.6926,3.6961,3.6987,3.6978,3.7001,3.7025,3.701,3.7032,3.7029,3.7029,3.6911,3.6897,3.7043,3.7043,3.7043,3.7043,3.7043,3.7043,3.6888,3.6941,3.6929,3.6984,3.6983,3.7018,3.7027,3.7036,3.7041,3.7082,3.7103,3.7096,3.7096,3.7118,3.714,3.7137,3.7147,3.7174,3.7165,3.7054,3.7038,3.7023,3.7009,3.7176,3.7177,3.728,3.7281,3.7282]}]]